Content
SEND FEEDBACK

Daily
Averages
Monthly
Summary
United States of America

CARNELIAN BAY, CALIFORNIA


Home > North America > United States > California
Elevation: 6258 feet     Latitude: 39 19N     Longitude: 120 14W

WEATHER
 
SELECT A DAY
Number of Records: 287,501;   Date Range: 1/1/95 - 10/20/14
 
SHARE

PRINT THIS DATA

[ ← Previous Day ]
WEATHER ALMANAC - AUGUST 7, 2014
[ Next Day → ]
[ °C ]   °F
Weather ElementAverageHighLow
Temperature56.2 °F80.6 °F (3:55 pm)42.8 °F (4:15 am)
Dewpoint47.2 °F51.8 °F (12:15 am)42.8 °F (4:15 am)
Humidity77.1 %100 % (1:15 am)26 % (3:55 pm)
Barometer30.22 in30.27 in (7:55 am)30.16 in (3:55 pm)
Wind Speed1.9 mph11.5 mph (3:50 pm)
Wind Gust16.1 mph (5:45 pm)
Weather ElementAverage
Visibility7.6 mi
Wind DirectionENE (79.2 °)

Weather ElementTotal
Precipitation---
Heating Degree Days3.3 (Base 65)
Growing Degree Days11.7 (Base 50)
Averaged from 50 records on August 7, 2014
WEATHER CONDITIONS BREAKOUT
WIND DIRECTION BREAKOUT
WEATHER BY HOUR - AUGUST 7, 2014
[ °C ]   °F
Local TimeTemperatureDewpointHumidityBarometerVisibilityWind DirectionWind SpeedGust SpeedPrecipitationEventsConditions
12:15 AM51.8 °F48.2 °F88 %30.26 in10.0 miCalmScattered Clouds
12:35 AM51.8 °F50.0 °F94 %30.25 in10.0 miCalmClear
12:55 AM50.0 °F48.2 °F94 %30.25 in10.0 miCalmClear
1:15 AM50.0 °F48.2 °F94 %30.25 in10.0 miEast (80°)3.5 mphClear
1:35 AM46.4 °F46.4 °F100 %30.26 in10.0 miCalmClear
1:55 AM48.2 °F46.4 °F93 %30.25 in10.0 miCalmClear
2:15 AM48.2 °F46.4 °F93 %30.25 in10.0 miCalmClear
2:35 AM44.6 °F44.6 °F100 %30.25 in7.0 miSSW (200°)3.5 mphClear
2:55 AM46.4 °F46.4 °F100 %30.25 in10.0 miCalmClear
3:15 AM46.4 °F46.4 °F100 %30.24 in4.0 miCalmClear
3:35 AM44.6 °F44.6 °F100 %30.25 in7.0 miCalmClear
3:55 AM46.4 °F46.4 °F100 %30.25 in7.0 miCalmClear
4:15 AM42.8 °F42.8 °F100 %30.25 in1.8 miCalmScattered Clouds
4:35 AM42.8 °F42.8 °F100 %30.25 in0.2 miCalmFogFog
4:55 AM46.4 °F46.4 °F100 %30.25 in0.2 miCalmFogFog
5:15 AM46.4 °F46.4 °F100 %30.25 in0.2 miCalmFogFog
5:35 AM44.6 °F44.6 °F100 %30.25 in0.2 miCalmFogFog
5:55 AM44.6 °F44.6 °F100 %30.25 in0.2 miCalmFogFog
6:15 AM44.6 °F44.6 °F100 %30.25 in0.2 miNW (320°)3.5 mphFogFog
6:35 AM44.6 °F44.6 °F100 %30.26 in0.2 miCalmFogFog
7:45 AM46.4 °F46.4 °F100 %30.27 in0.2 miCalmFogFog
7:55 AM46.4 °F46.4 °F100 %30.26 in0.2 miCalmFogFog
8:50 AM50.0 °F50.0 °F100 %30.27 in0.2 miCalmFogFog
9:55 AM57.2 °F51.8 °F82 %30.25 in10.0 miCalmPartly Cloudy
10:45 AM64.4 °F51.8 °F64 %30.25 in10.0 miCalmPartly Cloudy
11:45 AM73.4 °F44.6 °F36 %30.23 in10.0 miNorth (360°)4.6 mphPartly Cloudy
12:50 PM75.2 °F46.4 °F36 %30.22 in10.0 miCalmScattered Clouds
1:45 PM77.0 °F44.6 °F32 %30.20 in10.0 miSSW (210°)3.5 mphScattered Clouds
2:45 PM78.8 °F44.6 °F30 %30.19 in10.0 miNNE (30°)4.6 mphScattered Clouds
3:55 PM80.6 °F42.8 °F26 %30.16 in10.0 miNorth (360°)11.5 mphScattered Clouds
4:50 PM77.0 °F42.8 °F29 %30.16 in10.0 miNorth (350°)5.8 mphMostly Cloudy
5:45 PM75.2 °F46.4 °F36 %30.17 in10.0 miWest (260°)9.2 mph16.1 mphThunderstormThunderstorm
6:15 PM69.8 °F51.8 °F53 %30.17 in10.0 miSW (220°)8.1 mphClear
6:35 PM68.0 °F50.0 °F52 %30.17 in10.0 miSW (230°)6.9 mphClear
6:55 PM68.0 °F50.0 °F52 %30.18 in10.0 miWest (280°)5.8 mphClear
7:15 PM66.2 °F50.0 °F56 %30.17 in10.0 miWNW (300°)4.6 mphThunderstormClear
7:35 PM66.2 °F50.0 °F56 %30.17 in10.0 miCalmClear
7:55 PM64.4 °F50.0 °F59 %30.18 in10.0 miCalmClear
8:15 PM62.6 °F50.0 °F63 %30.19 in10.0 miCalmClear
8:35 PM60.8 °F50.0 °F68 %30.20 in10.0 miSW (230°)3.5 mphClear
8:55 PM59.0 °F50.0 °F72 %30.20 in10.0 miSSW (200°)3.5 mphClear
9:15 PM57.2 °F50.0 °F77 %30.20 in10.0 miCalmClear
9:35 PM59.0 °F50.0 °F72 %30.22 in10.0 miCalmClear
9:55 PM59.0 °F48.2 °F67 %30.21 in10.0 miCalmClear
10:15 PM53.6 °F46.4 °F77 %30.21 in10.0 miCalmClear
10:35 PM55.4 °F48.2 °F77 %30.21 in10.0 miCalmClear
10:55 PM53.6 °F46.4 °F77 %30.21 in10.0 miEast (80°)3.5 mphClear
11:15 PM53.6 °F46.4 °F77 %30.22 in10.0 miESE (110°)3.5 mphClear
11:35 PM50.0 °F46.4 °F87 %30.22 in10.0 miSE (140°)3.5 mphClear
11:55 PM50.0 °F46.4 °F87 %30.22 in10.0 miCalmClear
Hourly data recorded from KTRK, located miles away from Carnelian Bay, California







STORIES FROM OUR PARTNERS